Previsão horária em Aarau

Hoje, 25 Outubro, Domingo

Tempo Temperatura Precipitação Vento Pressão Humidade
00:00 +9°C° 0 mm 1 m/s 724 mmHg 93%
01:00 +9°C° 0 mm 1 m/s 724 mmHg 93%
02:00 +8°C° 0 mm 1 m/s 724 mmHg 93%
03:00 +8°C° 0 mm 1 m/s 723 mmHg 92%
04:00 +8°C° 0 mm 1 m/s 723 mmHg 92%
05:00 +8°C° 0 mm 1 m/s 723 mmHg 91%
06:00 +8°C° 0 mm 1 m/s 723 mmHg 91%
07:00 +8°C° 0 mm 1 m/s 722 mmHg 90%
08:00 +9°C° 0 mm 1 m/s 722 mmHg 84%
09:00 +11°C° 0 mm 1 m/s 722 mmHg 77%
10:00 +13°C° 0 mm 1 m/s 722 mmHg 71%
11:00 +14°C° 0 mm 1 m/s 721 mmHg 66%
12:00 +16°C° 0 mm 1 m/s 721 mmHg 60%
13:00 +18°C° 0 mm 1 m/s 720 mmHg 54%
14:00 +18°C° 0 mm 1 m/s 720 mmHg 58%
15:00 +18°C° 0 mm 1 m/s 720 mmHg 62%
16:00 +15°C° 0 mm 0 m/s 719 mmHg 66%
17:00 +13°C° 0 mm 0 m/s 719 mmHg 71%
18:00 +13°C° 0 mm 1 m/s 719 mmHg 76%
19:00 +11°C° 0 mm 1 m/s 719 mmHg 81%
20:00 +11°C° 0 mm 1 m/s 719 mmHg 83%
21:00 +10°C° 0 mm 1 m/s 720 mmHg 86%
22:00 +10°C° 0 mm 1 m/s 720 mmHg 88%
23:00 +10°C° 0.1 mm 1 m/s 719 mmHg 90%

Amanhã, 26 Outubro, Segunda-feira

Tempo Temperatura Precipitação Vento Pressão Humidade
00:00 +10°C° 0.1 mm 1 m/s 719 mmHg 91%
01:00 +10°C° 0.1 mm 1 m/s 719 mmHg 93%
02:00 +9°C° 1.4 mm 1 m/s 719 mmHg 94%
03:00 +9°C° 1.4 mm 1 m/s 719 mmHg 95%
04:00 +8°C° 1.4 mm 2 m/s 719 mmHg 96%
05:00 +9°C° 2.1 mm 1 m/s 719 mmHg 96%
06:00 +8°C° 2.1 mm 1 m/s 718 mmHg 96%
07:00 +8°C° 2.1 mm 1 m/s 718 mmHg 96%
08:00 +8°C° 0.9 mm 1 m/s 719 mmHg 96%
09:00 +8°C° 0.9 mm 1 m/s 719 mmHg 95%
10:00 +7°C° 0.9 mm 0 m/s 719 mmHg 94%
11:00 +9°C° 0.4 mm 1 m/s 719 mmHg 93%
12:00 +9°C° 0.4 mm 1 m/s 719 mmHg 92%
13:00 +9°C° 0.4 mm 1 m/s 719 mmHg 90%
14:00 +9°C° 0.3 mm 1 m/s 719 mmHg 91%
15:00 +9°C° 0.3 mm 1 m/s 719 mmHg 91%
16:00 +9°C° 0.3 mm 1 m/s 719 mmHg 92%
17:00 +9°C° 0.2 mm 1 m/s 719 mmHg 93%
18:00 +9°C° 0.2 mm 1 m/s 720 mmHg 94%
19:00 +8°C° 0.2 mm 1 m/s 720 mmHg 95%
20:00 +8°C° 0.1 mm 1 m/s 720 mmHg 95%
21:00 +8°C° 0.1 mm 1 m/s 720 mmHg 95%
22:00 +8°C° 0.1 mm 1 m/s 720 mmHg 95%
23:00 +7°C° 0 mm 1 m/s 721 mmHg 95%

Depois de amanhã, 27 Outubro, Terça-feira

Tempo Temperatura Precipitação Vento Pressão Humidade
00:00 +7°C° 0 mm 1 m/s 721 mmHg 94%
01:00 +7°C° 0 mm 1 m/s 721 mmHg 94%
02:00 +7°C° 0 mm 1 m/s 721 mmHg 94%
03:00 +6°C° 0 mm 1 m/s 721 mmHg 94%
04:00 +6°C° 0 mm 1 m/s 721 mmHg 94%
05:00 +6°C° 0 mm 1 m/s 721 mmHg 94%
06:00 +5°C° 0 mm 1 m/s 721 mmHg 94%
07:00 +5°C° 0 mm 1 m/s 721 mmHg 94%
08:00 +6°C° 0 mm 1 m/s 721 mmHg 91%
09:00 +7°C° 0 mm 2 m/s 722 mmHg 88%
10:00 +8°C° 0 mm 2 m/s 722 mmHg 86%
11:00 +9°C° 0.1 mm 2 m/s 722 mmHg 83%
12:00 +9°C° 0.1 mm 2 m/s 722 mmHg 81%
13:00 +10°C° 0.1 mm 2 m/s 722 mmHg 78%
14:00 +10°C° 0 mm 2 m/s 722 mmHg 78%
15:00 +10°C° 0 mm 2 m/s 722 mmHg 78%
16:00 +10°C° 0 mm 2 m/s 722 mmHg 77%
17:00 +10°C° 0 mm 1 m/s 722 mmHg 82%
18:00 +8°C° 0 mm 1 m/s 722 mmHg 87%
19:00 +7°C° 0 mm 1 m/s 722 mmHg 92%
20:00 +7°C° 0 mm 1 m/s 722 mmHg 91%
21:00 +6°C° 0 mm 1 m/s 723 mmHg 91%
22:00 +6°C° 0 mm 1 m/s 723 mmHg 90%
23:00 +6°C° 0 mm 1 m/s 723 mmHg 87%

28 Outubro, Quarta-feira

Tempo Temperatura Precipitação Vento Pressão Humidade
00:00 +6°C° 0 mm 1 m/s 722 mmHg 84%
01:00 +7°C° 0 mm 1 m/s 722 mmHg 81%
02:00 +7°C° 0.1 mm 1 m/s 722 mmHg 80%
03:00 +7°C° 0.1 mm 1 m/s 722 mmHg 79%
04:00 +8°C° 0.1 mm 1 m/s 722 mmHg 78%
05:00 +8°C° 0 mm 1 m/s 722 mmHg 79%
06:00 +8°C° 0 mm 1 m/s 723 mmHg 79%
07:00 +8°C° 0 mm 1 m/s 723 mmHg 79%
08:00 +10°C° 0 mm 1 m/s 723 mmHg 76%
09:00 +11°C° 0 mm 1 m/s 723 mmHg 72%
10:00 +12°C° 0 mm 2 m/s 723 mmHg 69%
11:00 +14°C° 0 mm 2 m/s 723 mmHg 67%
12:00 +14°C° 0 mm 3 m/s 723 mmHg 66%
13:00 +15°C° 0 mm 4 m/s 723 mmHg 64%
14:00 +16°C° 0.1 mm 3 m/s 723 mmHg 68%
15:00 +14°C° 0.1 mm 3 m/s 723 mmHg 73%
16:00 +13°C° 0.1 mm 3 m/s 723 mmHg 78%
17:00 +13°C° 0 mm 2 m/s 723 mmHg 81%
18:00 +12°C° 0 mm 2 m/s 724 mmHg 84%
19:00 +10°C° 0 mm 2 m/s 724 mmHg 88%
20:00 +10°C° 0.1 mm 2 m/s 724 mmHg 88%
21:00 +10°C° 0.1 mm 2 m/s 725 mmHg 88%
22:00 +10°C° 0.1 mm 2 m/s 725 mmHg 89%
23:00 +10°C° 0.1 mm 2 m/s 725 mmHg 89%

29 Outubro, Quinta-feira

Tempo Temperatura Precipitação Vento Pressão Humidade
00:00 +10°C° 0.1 mm 2 m/s 725 mmHg 89%
01:00 +10°C° 0.1 mm 2 m/s 725 mmHg 89%
02:00 +10°C° 0.1 mm 2 m/s 725 mmHg 90%
03:00 +10°C° 0.1 mm 2 m/s 726 mmHg 90%
04:00 +10°C° 0.1 mm 3 m/s 726 mmHg 90%
05:00 +9°C° 0 mm 2 m/s 726 mmHg 90%
06:00 +9°C° 0 mm 2 m/s 726 mmHg 91%
07:00 +9°C° 0 mm 2 m/s 727 mmHg 91%
08:00 +10°C° 0 mm 2 m/s 727 mmHg 88%
09:00 +12°C° 0 mm 2 m/s 728 mmHg 85%
10:00 +12°C° 0 mm 3 m/s 728 mmHg 82%
11:00 +12°C° 0 mm 3 m/s 728 mmHg 77%
12:00 +13°C° 0 mm 3 m/s 728 mmHg 73%
13:00 +14°C° 0 mm 3 m/s 728 mmHg 68%
14:00 +14°C° 0 mm 3 m/s 728 mmHg 71%
15:00 +14°C° 0 mm 2 m/s 728 mmHg 73%
16:00 +14°C° 0 mm 2 m/s 728 mmHg 76%
17:00 +13°C° 0 mm 1 m/s 729 mmHg 80%
18:00 +11°C° 0 mm 1 m/s 729 mmHg 85%
19:00 +10°C° 0 mm 1 m/s 730 mmHg 89%
20:00 +10°C° 0 mm 1 m/s 730 mmHg 89%
21:00 +10°C° 0 mm 1 m/s 730 mmHg 88%
22:00 +10°C° 0 mm 1 m/s 730 mmHg 88%
23:00 +10°C° 0 mm 1 m/s 730 mmHg 88%

30 Outubro, Sexta-feira

Tempo Temperatura Precipitação Vento Pressão Humidade
00:00 +10°C° 0 mm 1 m/s 730 mmHg 88%
01:00 +9°C° 0 mm 1 m/s 730 mmHg 88%
02:00 +9°C° 0 mm 1 m/s 730 mmHg 89%
03:00 +9°C° 0 mm 1 m/s 730 mmHg 89%
04:00 +9°C° 0 mm 1 m/s 730 mmHg 90%
05:00 +8°C° 0 mm 1 m/s 730 mmHg 90%
06:00 +8°C° 0 mm 1 m/s 729 mmHg 90%
07:00 +7°C° 0 mm 0 m/s 729 mmHg 90%
08:00 +9°C° 0 mm 0 m/s 729 mmHg 84%
09:00 +11°C° 0 mm 0 m/s 729 mmHg 77%
10:00 +13°C° 0 mm 0 m/s 730 mmHg 71%
11:00 +14°C° 0 mm 0 m/s 730 mmHg 66%
12:00 +15°C° 0 mm 0 m/s 730 mmHg 62%
13:00 +19°C° 0 mm 1 m/s 729 mmHg 58%
14:00 +16°C° 0 mm 0 m/s 729 mmHg 62%
15:00 +16°C° 0 mm 0 m/s 729 mmHg 66%
16:00 +15°C° 0 mm 0 m/s 729 mmHg 70%
17:00 +13°C° 0 mm 0 m/s 729 mmHg 75%
18:00 +13°C° 0 mm 1 m/s 728 mmHg 80%
19:00 +11°C° 0 mm 1 m/s 728 mmHg 85%
20:00 +11°C° 0 mm 1 m/s 728 mmHg 86%
21:00 +10°C° 0 mm 1 m/s 728 mmHg 86%
22:00 +10°C° 0 mm 1 m/s 728 mmHg 87%
23:00 +9°C° 0 mm 1 m/s 728 mmHg 88%
Mostrar mais